{"data":{"norad_id":69862,"epoch":"2026-09-19T19:24:31.395744Z","epoch_age_seconds":81361,"freshness":"FRESH","line1":"1 69862U 26155Q   26262.80869671 -.01822722  00000+0 -29961+1 0  9995","line2":"2 69862  89.0084  53.7555 0037180  14.0399 346.1777 13.51294682 10655","mean_motion":13.51294682,"eccentricity":0.003718,"inclination_deg":89.0084,"raan_deg":53.7555,"arg_perigee_deg":14.0399,"mean_anomaly_deg":346.1777,"bstar":-2.9961,"rev_number":1065,"period_min":106.5644688151,"perigee_km":1039.8160485941,"apogee_km":1095.1817973172,"semimajor_km":7445.6359229557,"source":"CELESTRAK","updated_at":"2026-09-20T09:00:25.160235Z"}}